Weather History for Ames, IA

Change the Weather History Date:

Tuesday, November 8, 2011

  Actual Average Record
Temperature  
Mean Temperature 39 °F 40 °F  
Max Temperature 44 °F 51 °F 82 °F (1999)
Min Temperature 34 °F 30 °F 14 °F (2003)
Degree Days  
Heating Degree Days 26 25  
Month to date heating degree days 179 182  
Since 1 July heating degree days 737 778  
Cooling Degree Days 0 0  
Month to date cooling degree days 0 0  
Year to date cooling degree days 973 752  
Moisture  
Dew Point 38 °F    
Average Humidity 89    
Maximum Humidity 96    
Minimum Humidity 82    
Precipitation  
Precipitation 1.42 in 0.08 in 1.42 in (2011)
Month to date precipitation 2.35 0.75  
Year to date precipitation 28.53  
Sea Level Pressure  
Sea Level Pressure 30.06 in    
Wind  
Wind Speed 12 mph (NNE)    
Max Wind Speed 23 mph    
Max Gust Speed 29 mph    
Visibility 7 miles    
Events Rain , Snow    
T = Trace of Precipitation, MM = Missing Value Source: NWS Daily Summary

Daily Weather History Graph

Daily Weather History Graph

Search for Another Location

Airport:

Trip Planner

Search our weather history database for the weather conditions in past years. The results will help you decide how hot, cold, wet, or windy it might be!

Date:

Astronomy

Nov. 08, 2011 Rise Set
Actual Time 6:55 AM CST 5:00 PM CST
Civil Twilight 6:25 AM CST 5:29 PM CST
Nautical Twilight 5:52 AM CST 6:03 PM CST
Astronomical Twilight 5:19 AM CST 6:35 PM CST
Moon 3:41 PM CST (11/8) 4:53 AM CST (11/8)
Length of Visible Light 11h 04m
Length of Day
10h 05m
Waxing Gibbous, 96% of the Moon is Illuminated
Nov 8
Waxing Gibbous
Nov 10
Full
Nov 18
Last Quarter
Nov 25
New
Dec 2
First Quarter

Hourly Weather History & Observations

Time (CST) Temp. Windchill Dew Point Humidity Pressure Visibility Wind Dir Wind Speed Gust Speed Precip Events Conditions
12:53 AM 44.1 °F 37.1 °F 41.0 °F 89% 30.11 in 9.0 mi NNE 15.0 mph 20.7 mph 0.02 in   Overcast
1:53 AM 44.1 °F 38.6 °F 39.9 °F 85% 30.09 in 10.0 mi NE 10.4 mph - 0.02 in   Overcast
2:53 AM 43.0 °F 37.2 °F 39.9 °F 89% 30.09 in 8.0 mi NE 10.4 mph - 0.02 in Rain Light Rain
3:53 AM 43.0 °F 37.7 °F 39.9 °F 89% 30.08 in 6.0 mi ENE 9.2 mph - 0.05 in Rain Light Rain
4:46 AM 42.8 °F 38.0 °F 41.0 °F 93% 30.08 in 8.0 mi NNE 8.1 mph - 0.01 in   Overcast
4:59 AM 42.8 °F 38.6 °F 41.0 °F 93% 30.08 in 5.0 mi NE 6.9 mph - N/A   Overcast
5:08 AM 42.8 °F 39.3 °F 41.0 °F 93% 30.09 in 3.0 mi NNE 5.8 mph - 0.01 in Rain Light Rain
5:19 AM 42.8 °F 38.0 °F 41.0 °F 93% 30.09 in 2.0 mi NNE 8.1 mph - 0.02 in Rain Light Rain
5:53 AM 42.1 °F 37.1 °F 41.0 °F 96% 30.10 in 3.0 mi NNE 8.1 mph - 0.06 in Rain Light Rain
6:53 AM 42.1 °F 35.2 °F 39.9 °F 92% 30.06 in 6.0 mi NNE 12.7 mph - 0.02 in   Overcast
7:53 AM 42.1 °F 36.1 °F 39.9 °F 92% 30.08 in 8.0 mi NNE 10.4 mph - 0.01 in   Overcast
8:53 AM 43.0 °F 36.8 °F 41.0 °F 93% 30.09 in 10.0 mi NE 11.5 mph - N/A   Overcast
9:53 AM 44.1 °F 39.5 °F 41.0 °F 89% 30.10 in 10.0 mi NE 8.1 mph - N/A   Overcast
10:02 AM 44.6 °F 39.2 °F 41.0 °F 87% 30.09 in 10.0 mi NNE 10.4 mph - N/A   Overcast
10:48 AM 44.6 °F 39.2 °F 41.0 °F 87% 30.10 in 10.0 mi NNE 10.4 mph - N/A   Overcast
10:53 AM 44.1 °F 38.1 °F 39.9 °F 85% 30.11 in 10.0 mi NNE 11.5 mph - N/A   Overcast
11:53 AM 44.1 °F 37.1 °F 39.9 °F 85% 30.07 in 10.0 mi NNE 15.0 mph - N/A   Overcast
12:36 PM 42.8 °F 36.2 °F 39.2 °F 87% 30.05 in 10.0 mi NNE 12.7 mph - N/A   Overcast
12:46 PM 42.8 °F 35.4 °F 39.2 °F 87% 30.04 in 10.0 mi NNE 15.0 mph - N/A   Overcast
12:53 PM 44.1 °F 38.6 °F 39.9 °F 85% 30.05 in 10.0 mi NNE 10.4 mph - N/A   Overcast
1:18 PM 42.8 °F 37.0 °F 39.2 °F 87% 30.03 in 10.0 mi NNE 10.4 mph 21.9 mph 0.00 in   Overcast
1:53 PM 43.0 °F 35.7 °F 39.9 °F 89% 30.05 in 10.0 mi NE 15.0 mph - 0.00 in   Overcast
2:09 PM 44.6 °F 38.4 °F 39.2 °F 81% 30.03 in 10.0 mi NE 12.7 mph 19.6 mph N/A   Overcast
2:49 PM 44.6 °F 38.4 °F 39.2 °F 81% 30.04 in 10.0 mi NNE 12.7 mph - N/A   Overcast
2:53 PM 44.1 °F 38.1 °F 39.0 °F 82% 30.05 in 10.0 mi NNE 11.5 mph - N/A   Overcast
3:21 PM 44.6 °F 40.2 °F 39.2 °F 81% 30.05 in 5.0 mi NE 8.1 mph - 0.02 in Rain Light Rain
3:53 PM 43.0 °F 38.8 °F 41.0 °F 93% 30.05 in 4.0 mi NNE 6.9 mph - 0.07 in Rain Light Rain
4:17 PM 42.8 °F 37.0 °F 41.0 °F 93% 30.03 in 2.0 mi NNE 10.4 mph - 0.09 in Rain Heavy Rain
4:31 PM 42.8 °F 35.8 °F 39.2 °F 87% 30.03 in 3.0 mi NNE 13.8 mph 23.0 mph 0.11 in Rain Rain
5:02 PM 42.8 °F 37.0 °F 37.4 °F 81% 30.04 in 8.0 mi NNE 10.4 mph - 0.01 in Rain Light Rain
5:53 PM 42.1 °F 33.9 °F 37.0 °F 82% 30.06 in 8.0 mi NNE 17.3 mph - 0.07 in Rain Light Rain
6:53 PM 39.9 °F 31.4 °F 36.0 °F 86% 30.06 in 5.0 mi NNE 16.1 mph 25.3 mph 0.14 in Rain Rain
7:53 PM 39.0 °F 30.6 °F 36.0 °F 89% 30.10 in 5.0 mi NNE 15.0 mph 23.0 mph 0.14 in Rain Rain
8:02 PM 39.2 °F 29.3 °F 35.6 °F 87% 30.08 in 4.0 mi NNE 20.7 mph 27.6 mph 0.03 in Rain Rain
8:53 PM 35.1 °F 25.5 °F 33.1 °F 92% 30.09 in 4.0 mi NNE 15.0 mph - 0.23 in Snow Light Snow
9:11 PM 33.8 °F 23.9 °F 33.8 °F 100% 30.05 in 3.0 mi NNE 15.0 mph - 0.03 in Snow Light Snow
9:18 PM 33.8 °F 23.9 °F 33.8 °F 100% 30.05 in 3.0 mi NNE 15.0 mph - 0.05 in Snow Light Snow
9:53 PM 35.1 °F 24.8 °F 34.0 °F 96% 30.04 in 2.5 mi North 17.3 mph 25.3 mph 0.13 in Rain Rain
10:03 PM 35.6 °F 26.2 °F 33.8 °F 93% 30.03 in 4.0 mi North 15.0 mph - 0.02 in Rain Rain
10:43 PM 35.6 °F 25.5 °F 33.8 °F 93% 30.02 in 5.0 mi North 17.3 mph 27.6 mph 0.08 in Rain Rain
11:51 PM 35.6 °F 25.9 °F 33.8 °F 93% 30.00 in 3.0 mi North 16.1 mph 24.2 mph 0.18 in Rain Rain
11:53 PM 35.1 °F 25.2 °F 34.0 °F 96% 30.02 in 3.0 mi North 16.1 mph 23.0 mph 0.19 in Rain Rain